Time,TemperatureF,DewpointF,PressureIn,WindDirection,WindDirectionDegrees,WindSpeedMPH,WindSpeedGustMPH,Humidity,HourlyPrecipIn,Conditions,Clouds,dailyrainin,SolarRadiationWatts/m^2,SoftwareType,DateUTC
2013-07-07 00:01:00,77.0,72.0,-100.00,ENE,74,4.0,5.0,86,0.00,,,0.00,0.000000,,2013-07-07 05:01:00,
2013-07-07 00:31:00,76.0,72.0,-100.00,East,95,5.0,7.0,87,0.00,,,0.00,0.000000,,2013-07-07 05:31:00,
2013-07-07 00:41:00,76.0,72.0,-100.00,East,95,5.0,7.0,87,0.00,,,0.00,0.000000,,2013-07-07 05:41:00,
2013-07-07 00:51:00,76.0,72.0,-100.00,East,95,5.0,7.0,87,0.00,,,0.00,0.000000,,2013-07-07 05:51:00,
2013-07-07 01:01:00,76.0,72.0,-100.00,East,95,5.0,7.0,87,0.00,,,0.00,0.000000,,2013-07-07 06:01:00,
2013-07-07 01:32:00,75.0,71.0,-100.00,East,86,3.0,6.0,88,0.00,,,0.00,0.000000,,2013-07-07 06:32:00,
2013-07-07 01:43:00,75.0,71.0,-100.00,East,86,3.0,6.0,88,0.00,,,0.00,0.000000,,2013-07-07 06:43:00,
2013-07-07 01:52:00,75.0,71.0,-100.00,East,86,3.0,6.0,88,0.00,,,0.00,0.000000,,2013-07-07 06:52:00,
2013-07-07 02:02:00,75.0,71.0,-100.00,East,86,3.0,6.0,88,0.00,,,0.00,0.000000,,2013-07-07 07:02:00,
2013-07-07 02:33:00,75.0,72.0,-100.00,ESE,112,5.0,9.0,91,0.00,,,0.00,0.000000,,2013-07-07 07:33:00,
2013-07-07 02:44:00,75.0,72.0,-100.00,ESE,112,5.0,9.0,91,0.00,,,0.00,0.000000,,2013-07-07 07:44:00,
2013-07-07 02:53:00,75.0,72.0,-100.00,ESE,112,5.0,9.0,91,0.00,,,0.00,0.000000,,2013-07-07 07:53:00,
2013-07-07 03:02:00,75.0,72.0,-100.00,ESE,112,5.0,9.0,91,0.00,,,0.00,0.000000,,2013-07-07 08:02:00,
2013-07-07 03:34:00,74.0,72.0,-100.00,East,82,4.0,7.0,93,0.00,,,0.00,0.000000,,2013-07-07 08:34:00,
2013-07-07 03:44:00,74.0,72.0,-100.00,East,82,4.0,7.0,93,0.00,,,0.00,0.000000,,2013-07-07 08:44:00,
2013-07-07 03:53:00,74.0,72.0,-100.00,East,82,4.0,7.0,93,0.00,,,0.00,0.000000,,2013-07-07 08:53:00,
2013-07-07 04:02:00,74.0,72.0,-100.00,East,82,4.0,7.0,93,0.00,,,0.00,0.000000,,2013-07-07 09:02:00,
2013-07-07 04:34:00,74.0,72.0,-100.00,East,80,5.0,7.0,94,0.00,,,0.00,0.000000,,2013-07-07 09:34:00,
2013-07-07 04:43:00,74.0,72.0,-100.00,East,80,5.0,7.0,94,0.00,,,0.00,0.000000,,2013-07-07 09:43:00,
2013-07-07 04:53:00,74.0,72.0,-100.00,East,80,5.0,7.0,94,0.00,,,0.00,0.000000,,2013-07-07 09:53:00,
2013-07-07 05:03:00,74.0,72.0,-100.00,East,80,5.0,7.0,94,0.00,,,0.00,0.000000,,2013-07-07 10:03:00,
2013-07-07 05:32:00,74.0,72.0,-100.00,East,87,4.0,7.0,95,0.00,,,0.00,0.000000,,2013-07-07 10:32:00,
2013-07-07 05:43:00,74.0,72.0,-100.00,East,87,4.0,7.0,95,0.00,,,0.00,0.000000,,2013-07-07 10:43:00,
2013-07-07 05:52:00,74.0,72.0,-100.00,East,87,4.0,7.0,95,0.00,,,0.00,0.000000,,2013-07-07 10:52:00,
2013-07-07 06:02:00,74.0,72.0,-100.00,East,87,4.0,7.0,95,0.00,,,0.00,0.000000,,2013-07-07 11:02:00,
2013-07-07 06:34:00,75.0,73.0,-100.00,East,99,4.0,8.0,95,0.00,,,0.00,0.000000,,2013-07-07 11:34:00,
2013-07-07 06:43:00,75.0,73.0,-100.00,East,99,4.0,8.0,95,0.00,,,0.00,0.000000,,2013-07-07 11:43:00,
2013-07-07 06:53:00,75.0,73.0,-100.00,East,99,4.0,8.0,95,0.00,,,0.00,0.000000,,2013-07-07 11:53:00,
2013-07-07 07:02:00,75.0,73.0,-100.00,East,99,4.0,8.0,95,0.00,,,0.00,0.000000,,2013-07-07 12:02:00,
2013-07-07 07:34:00,76.0,74.0,-100.00,East,101,4.0,9.0,95,0.00,,,0.00,8.000000,,2013-07-07 12:34:00,
2013-07-07 07:43:00,76.0,74.0,-100.00,East,101,4.0,9.0,95,0.00,,,0.00,8.000000,,2013-07-07 12:43:00,
2013-07-07 07:52:00,76.0,74.0,-100.00,East,101,4.0,9.0,95,0.00,,,0.00,8.000000,,2013-07-07 12:52:00,
2013-07-07 08:02:00,76.0,74.0,-100.00,East,101,4.0,9.0,95,0.00,,,0.00,8.000000,,2013-07-07 13:02:00,
2013-07-07 08:34:00,77.0,74.0,-100.00,ESE,122,5.0,9.0,92,0.00,,,0.00,47.000000,,2013-07-07 13:34:00,
2013-07-07 08:43:00,77.0,74.0,-100.00,ESE,122,5.0,9.0,92,0.00,,,0.00,47.000000,,2013-07-07 13:43:00,
2013-07-07 08:52:00,77.0,74.0,-100.00,ESE,122,5.0,9.0,92,0.00,,,0.00,47.000000,,2013-07-07 13:52:00,
2013-07-07 09:02:00,77.0,74.0,-100.00,ESE,122,5.0,9.0,92,0.00,,,0.00,47.000000,,2013-07-07 14:02:00,
2013-07-07 09:34:00,78.0,75.0,-100.00,East,98,4.0,9.0,91,0.00,,,0.00,87.000000,,2013-07-07 14:34:00,
2013-07-07 09:43:00,78.0,75.0,-100.00,East,98,4.0,9.0,91,0.00,,,0.00,87.000000,,2013-07-07 14:43:00,
2013-07-07 09:53:00,78.0,75.0,-100.00,East,98,4.0,9.0,91,0.00,,,0.00,87.000000,,2013-07-07 14:53:00,
2013-07-07 10:02:00,78.0,75.0,-100.00,East,98,4.0,9.0,91,0.00,,,0.00,87.000000,,2013-07-07 15:02:00,
2013-07-07 11:01:00,85.0,79.0,-100.00,ESE,121,4.0,8.0,83,0.00,,,0.00,348.000000,,2013-07-07 16:01:00,
2013-07-07 12:34:00,88.0,75.0,-100.00,SSW,209,4.0,12.0,65,-99.99,,,0.00,614.000000,,2013-07-07 17:34:00,
2013-07-07 12:53:00,88.0,75.0,-100.00,SSW,209,4.0,12.0,65,-99.99,,,0.00,614.000000,,2013-07-07 17:53:00,
2013-07-07 13:02:00,88.0,75.0,-100.00,SSW,209,4.0,12.0,65,-99.99,,,0.00,614.000000,,2013-07-07 18:02:00,
2013-07-07 13:33:00,81.0,71.0,-100.00,South,182,10.0,23.0,71,-99.99,,,0.00,229.000000,,2013-07-07 18:33:00,
2013-07-07 13:43:00,81.0,71.0,-100.00,South,182,10.0,23.0,71,-99.99,,,0.00,229.000000,,2013-07-07 18:43:00,
2013-07-07 13:53:00,81.0,71.0,-100.00,South,182,10.0,23.0,71,-99.99,,,0.00,229.000000,,2013-07-07 18:53:00,
2013-07-07 14:01:00,81.0,71.0,-100.00,South,182,10.0,23.0,71,-99.99,,,0.00,229.000000,,2013-07-07 19:01:00,
2013-07-07 14:34:00,85.0,74.0,-100.00,SSE,161,9.0,17.0,69,0.00,,,0.00,504.000000,,2013-07-07 19:34:00,
2013-07-07 14:43:00,85.0,74.0,-100.00,SSE,161,9.0,17.0,69,0.00,,,0.00,504.000000,,2013-07-07 19:43:00,
2013-07-07 14:54:00,85.0,74.0,-100.00,SSE,161,9.0,17.0,69,0.00,,,0.00,504.000000,,2013-07-07 19:54:00,
2013-07-07 15:02:00,85.0,74.0,-100.00,SSE,161,9.0,17.0,69,0.00,,,0.00,504.000000,,2013-07-07 20:02:00,
2013-07-07 16:34:00,81.0,71.0,-100.00,SE,141,10.0,18.0,71,-99.99,,,0.00,323.000000,,2013-07-07 21:34:00,
2013-07-07 16:44:00,81.0,71.0,-100.00,SE,141,10.0,18.0,71,-99.99,,,0.00,323.000000,,2013-07-07 21:44:00,
2013-07-07 16:53:00,81.0,71.0,-100.00,SE,141,10.0,18.0,71,-99.99,,,0.00,323.000000,,2013-07-07 21:53:00,
2013-07-07 17:01:00,81.0,71.0,-100.00,SE,141,10.0,18.0,71,-99.99,,,0.00,323.000000,,2013-07-07 22:01:00,
2013-07-07 17:34:00,80.0,77.0,-100.00,SE,146,6.0,15.0,90,0.04,,,0.04,197.000000,,2013-07-07 22:34:00,
2013-07-07 17:44:00,80.0,77.0,-100.00,SE,146,6.0,15.0,90,0.04,,,0.04,197.000000,,2013-07-07 22:44:00,
2013-07-07 17:54:00,80.0,77.0,-100.00,SE,146,6.0,15.0,90,0.04,,,0.04,197.000000,,2013-07-07 22:54:00,
2013-07-07 18:02:00,80.0,77.0,-100.00,SE,146,6.0,15.0,90,0.04,,,0.04,197.000000,,2013-07-07 23:02:00,
2013-07-07 18:33:00,81.0,76.0,-100.00,SE,135,4.0,11.0,86,0.00,,,0.04,230.000000,,2013-07-07 23:33:00,
2013-07-07 18:43:00,81.0,76.0,-100.00,SE,135,4.0,11.0,86,0.00,,,0.04,230.000000,,2013-07-07 23:43:00,
2013-07-07 18:53:00,81.0,76.0,-100.00,SE,135,4.0,11.0,86,0.00,,,0.04,230.000000,,2013-07-07 23:53:00,
2013-07-07 19:01:00,81.0,76.0,-100.00,SE,135,4.0,11.0,86,0.00,,,0.04,230.000000,,2013-07-08 00:01:00,
2013-07-07 19:33:00,80.0,75.0,-100.00,SE,143,4.0,13.0,86,0.00,,,0.04,116.000000,,2013-07-08 00:33:00,
2013-07-07 19:43:00,80.0,75.0,-100.00,SE,143,4.0,13.0,86,0.00,,,0.04,116.000000,,2013-07-08 00:43:00,
2013-07-07 19:53:00,80.0,75.0,-100.00,SE,143,4.0,13.0,86,0.00,,,0.04,116.000000,,2013-07-08 00:53:00,
2013-07-07 20:01:00,80.0,75.0,-100.00,SE,143,4.0,13.0,86,0.00,,,0.04,116.000000,,2013-07-08 01:01:00,
2013-07-07 20:32:00,79.0,76.0,-100.00,SSE,153,4.0,10.0,90,0.00,,,0.04,32.000000,,2013-07-08 01:32:00,
2013-07-07 20:43:00,79.0,76.0,-100.00,SSE,153,4.0,10.0,90,0.00,,,0.04,32.000000,,2013-07-08 01:43:00,
2013-07-07 20:53:00,79.0,76.0,-100.00,SSE,153,4.0,10.0,90,0.00,,,0.04,32.000000,,2013-07-08 01:53:00,
2013-07-07 21:02:00,79.0,76.0,-100.00,SSE,153,4.0,10.0,90,0.00,,,0.04,32.000000,,2013-07-08 02:02:00,
2013-07-07 21:33:00,77.0,75.0,-100.00,SE,134,3.0,6.0,94,0.00,,,0.04,2.000000,,2013-07-08 02:33:00,
2013-07-07 21:43:00,77.0,75.0,-100.00,SE,134,3.0,6.0,94,0.00,,,0.04,2.000000,,2013-07-08 02:43:00,
2013-07-07 21:52:00,77.0,75.0,-100.00,SE,134,3.0,6.0,94,0.00,,,0.04,2.000000,,2013-07-08 02:52:00,
2013-07-07 22:01:00,77.0,75.0,-100.00,SE,134,3.0,6.0,94,0.00,,,0.04,2.000000,,2013-07-08 03:01:00,
2013-07-07 22:34:00,76.0,75.0,-100.00,SE,133,3.0,5.0,96,0.00,,,0.04,0.000000,,2013-07-08 03:34:00,
2013-07-07 22:42:00,76.0,75.0,-100.00,SE,133,3.0,5.0,96,0.00,,,0.04,0.000000,,2013-07-08 03:42:00,
2013-07-07 22:52:00,76.0,75.0,-100.00,SE,133,3.0,5.0,96,0.00,,,0.04,0.000000,,2013-07-08 03:52:00,
2013-07-07 23:02:00,76.0,75.0,-100.00,SE,133,3.0,5.0,96,0.00,,,0.04,0.000000,,2013-07-08 04:02:00,
2013-07-07 23:33:00,75.0,74.0,-100.00,ESE,118,3.0,6.0,96,0.00,,,0.04,0.000000,,2013-07-08 04:33:00,
2013-07-07 23:42:00,75.0,74.0,-100.00,ESE,118,3.0,6.0,96,0.00,,,0.04,0.000000,,2013-07-08 04:42:00,
2013-07-07 23:53:00,75.0,74.0,-100.00,ESE,118,3.0,6.0,96,0.00,,,0.04,0.000000,,2013-07-08 04:53:00,